Wetbulb
38.64 35.23 31.66 35.12 38.44 38.51 37.25 36.33 35.71 39.28 41.76 39.37 37.14 35.79 36.13 37.82 38.33 39.48 40.65 41.56 41.46 40.80 41.31 40.78 40.82 41.13 42.24 42.38 43.74 44.42 45.86 46.95 48.57 49.15 48.90 49.48 49.08 49.61 50.08 50.03 50.23 50.60 52.13 53.05
35.60 31.90 36.97 38.89 38.95 38.14 36.92 35.47 35.78 39.57 40.27 39.02 35.85 34.81 35.72 36.72 36.60 38.83 39.95 41.13 40.88 40.86 40.35 39.26 38.60 38.65 38.90 39.34 40.65 42.02 43.09 44.55 46.67 48.24 48.83 49.25 49.29 49.91 49.90 50.73 52.10 52.88 53.14 53.37
33.24 34.85 38.69 37.80 35.93 35.27 34.40 34.36 34.89 36.35 37.05 37.36 35.76 33.87 33.22 35.09 37.53 38.52 39.12 39.93 39.73 39.26 38.34 38.32 37.43 36.31 37.02 37.55 38.93 39.75 40.40 41.97 43.68 46.44 49.15 49.28 49.73 50.43 50.77 50.79 51.26 50.19 49.90 49.26
34.02 36.11 36.69 35.13 34.49 35.75 31.37 37.97 38.39 37.83 35.44 29.69 35.52 29.14 31.03 33.06 34.09 36.58 37.09 37.74 37.84 37.44 37.29 36.99 36.62 35.28 35.23 35.81 37.62 38.75 38.63 39.96 42.07 43.96 46.93 47.83 46.78 46.19 46.04 47.13 47.29 47.58 46.93 46.56
31.99 33.42 33.29 32.66 34.56 37.00 34.28 37.27 37.51 37.96 35.81 33.34 31.07 28.14 32.06 32.93 31.35 33.38 35.93 36.31 36.26 36.49 35.93 34.88 34.85 34.96 34.73 35.17 35.67 36.70 37.30 37.96 39.83 41.17 42.63 43.21 42.55 43.04 43.29 43.78 43.44 44.00 44.15 44.17
33.36 35.73 36.11 35.43 36.52 37.49 38.65 36.93 35.81 36.08 35.02 29.33 30.95 29.62 29.78 29.59 32.92 34.13 35.19 35.23 35.05 34.65 34.26 34.04 34.43 34.71 33.73 34.16 34.95 35.31 35.77 35.48 37.06 38.11 39.02 39.55 39.32 39.52 39.33 39.70 39.69 40.73 41.17 41.50
31.10 31.92 34.33 36.10 34.29 36.81 37.07 33.63 25.01 23.12 26.26 25.37 29.70 29.21 33.69 33.49 34.21 34.88 33.89 32.92 32.74 33.23 32.54 32.14 32.03 31.95 31.63 31.82 32.72 34.19 33.35 32.42 33.32 33.21 33.53 35.13 35.58 35.65 35.33 35.90 35.69 36.10 36.76 37.90
26.77 25.16 32.59 35.43 34.62 33.41 33.91 33.00 26.84 20.02 21.17 24.01 29.74 26.07 31.31 31.79 32.94 35.42 35.05 31.99 31.01 30.38 30.64 30.51 30.60 30.30 29.32 29.34 29.99 30.40 30.15 29.68 30.47 30.54 30.34 31.13 31.73 31.76 31.66 32.07 32.46 32.70 33.70 34.88
26.32 27.10 32.90 34.26 34.75 37.20 32.94 30.97 34.55 28.77 22.51 24.05 26.63 29.07 29.40 29.70 29.09 29.66 28.95 29.04 28.46 28.77 29.02 29.00 28.94 28.40 27.79 27.35 27.27 28.16 28.45 28.39 28.72 29.21 29.33 29.16 29.64 29.59 29.36 29.98 30.80 30.99 31.91 33.13
31.48 27.11 30.42 33.46 35.12 34.22 34.68 36.89 29.50 30.70 23.22 21.37 25.33 26.29 29.47 27.09 27.32 27.84 27.32 27.70 27.86 28.23 28.14 28.10 27.27 26.21 25.99 26.14 26.48 27.00 27.07 26.58 27.28 27.63 28.12 27.81 28.13 28.45 28.52 28.51 28.29 28.98 29.81 30.77
31.67 29.64 27.34 31.73 30.22 30.39 32.37 30.94 31.52 32.07 29.31 23.83 21.12 25.58 29.63 29.57 29.94 27.60 27.49 27.93 27.29 27.35 27.47 26.74 25.59 25.07 25.04 25.45 25.59 25.69 25.88 25.77 25.67 26.20 26.47 26.38 26.50 26.82 27.18 26.73 27.11 27.81 28.32 29.07
32.05 29.64 24.80 27.43 31.40 32.62 31.45 32.69 31.71 28.84 24.18 24.97 25.28 25.43 28.51 28.58 30.68 29.75 27.89 27.52 27.70 27.71 26.62 25.23 24.21 23.91 23.80 23.83 24.17 24.17 24.62 24.53 24.85 25.23 25.05 24.80 25.21 25.34 24.93 24.90 25.59 26.78 26.43 27.32
33.99 23.05 17.56 23.67 28.22 28.06 28.84 30.53 32.86 29.46 28.65 24.80 23.85 25.89 28.22 28.37 28.59 29.23 26.95 26.62 26.74 25.02 23.38 22.57 22.26 22.20 22.36 22.81 23.01 23.10 23.33 23.23 23.86 24.03 23.60 23.36 23.32 23.51 23.34 23.53 24.22 24.80 24.93 25.04
37.50 29.26 27.57 24.69 26.12 29.47 28.27 29.80 32.13 33.98 27.73 27.37 27.68 27.16 24.77 25.59 25.72 26.14 26.29 26.31 25.03 23.77 23.08 21.65 21.10 21.20 21.59 22.30 21.98 22.04 22.06 22.55 22.65 22.67 22.27 21.66 21.69 22.00 22.30 22.83 22.98 23.29 23.56 23.39
34.30 26.78 25.74 28.77 30.15 30.11 29.58 31.63 31.05 30.67 33.00 28.82 31.15 26.84 29.25 27.77 26.85 26.30 26.41 25.73 24.07 22.66 21.79 20.87 20.50 20.75 21.21 21.06 21.26 21.63 21.57 21.43 21.68 21.03 20.94 20.78 21.59 21.86 21.91 21.86 21.93 22.45 22.69 22.51
35.41 24.17 26.96 22.41 30.67 29.42 26.57 29.88 31.67 32.13 32.86 31.96 26.75 26.59 28.10 28.98 28.38 26.02 26.09 25.77 24.32 22.83 22.49 21.96 22.19 21.86 21.54 21.79 20.18 21.87 20.52 20.21 20.99 20.25 19.97 20.83 20.80 20.83 20.44 20.59 20.66 20.93 21.02 21.39
33.25 29.23 25.22 22.89 29.27 29.68 23.28 28.99 29.52 30.67 33.25 32.18 28.05 34.91 28.37 26.10 27.65 27.08 26.42 26.49 25.68 23.94 23.40 22.18 22.02 22.28 22.60 22.03 22.57 19.77 19.75 20.56 19.87 19.58 19.54 19.51 19.69 19.15 18.96 19.36 19.25 19.00 19.13 20.29
33.45 32.64 29.90 25.96 29.10 21.38 29.67 27.73 31.31 31.84 32.10 33.97 28.99 30.33 30.69 28.91 30.18 29.90 29.50 27.68 27.15 25.28 23.94 23.09 22.59 22.44 22.68 21.68 20.46 20.16 20.01 19.57 18.97 18.12 17.95 18.38 18.39 18.07 18.16 17.90 17.43 17.79 18.75 18.85
36.98 33.81 29.36 26.64 25.69 27.41 29.96 26.76 29.29 29.45 30.55 32.58 33.45 30.56 28.78 27.64 26.36 24.29 29.59 29.85 28.68 26.07 24.84 23.76 23.56 22.86 20.72 20.31 20.09 19.68 18.49 18.19 17.47 16.42 16.20 16.80 17.30 16.87 17.15 16.52 16.30 17.12 17.92 18.17
34.34 36.00 31.10 25.83 24.01 20.87 27.85 29.33 31.04 33.58 28.56 33.95 33.79 29.42 26.74 28.45 25.54 27.54 28.63 29.58 28.11 26.11 25.07 23.58 23.12 22.03 20.70 19.88 19.89 18.59 16.78 16.22 15.30 15.33 15.26 16.16 17.08 15.81 15.01 15.89 16.02 16.90 18.21 17.79
28.77 30.74 27.97 27.43 25.84 24.79 28.25 28.39 30.87 25.75 28.03 31.95 34.93 32.45 28.44 30.07 32.51 32.64 30.46 29.06 28.43 25.49 24.26 23.38 22.13 21.13 20.71 19.86 19.18 17.13 15.95 15.08 15.62 15.87 15.22 14.94 15.36 15.11 15.09 15.18 15.47 15.66 15.81 16.12
28.96 28.65 27.69 26.19 25.08 21.32 27.57 27.88 30.34 30.97 28.54 29.93 31.06 31.63 31.07 27.19 27.64 29.27 29.29 27.95 24.98 23.00 22.62 22.18 21.30 20.70 20.18 19.73 19.03 16.40 15.20 15.09 14.48 13.91 13.25 12.87 13.22 15.14 14.64 14.06 14.04 14.20 14.45 14.16
23.68 29.18 26.82 29.62 28.86 24.15 30.62 27.26 26.74 27.85 28.85 28.70 29.01 29.82 29.21 26.07 26.33 27.48 25.80 24.14 23.21 22.12 22.09 21.99 21.10 19.29 19.10 18.94 18.65 15.91 14.90 13.39 12.26 11.21 9.92 10.12 11.91 13.43 13.57 13.20 12.52 12.31 12.94 13.13
19.97 17.77 24.90 26.89 28.31 26.44 28.55 26.71 27.33 28.31 30.11 29.18 29.15 29.90 28.50 25.48 25.40 24.82 23.39 22.74 21.22 21.70 20.38 20.94 19.33 17.95 16.78 17.16 17.89 16.00 13.27 11.98 8.76 8.23 8.33 9.11 9.40 9.64 10.30 12.69 12.89 12.34 11.68 11.80
22.74 20.99 20.86 21.97 21.62 24.13 25.00 26.10 29.07 28.10 29.26 28.48 27.60 26.92 26.49 25.63 24.27 23.40 22.76 21.77 21.58 21.06 20.29 19.60 18.70 17.81 16.76 15.82 14.20 12.54 11.12 8.46 8.03 8.00 8.76 9.85 9.43 9.30 9.11 10.32 10.45 11.89 12.06 12.90
21.26 24.24 24.96 26.85 24.88 29.09 30.01 30.15 29.79 28.26 28.06 26.67 25.09 23.11 24.58 25.63 23.66 23.71 22.58 22.35 21.18 19.75 18.61 18.17 17.75 17.01 14.90 14.11 11.64 8.67 7.70 7.82 7.58 7.69 8.35 8.21 8.03 6.82 7.89 7.82 7.65 12.87 15.65 16.71
MSLP
1019.06 1019.58 1019.70 1020.15 1020.11 1020.17 1020.56 1020.89 1020.85 1021.07 1020.70 1021.35 1022.54 1023.90 1024.95 1025.54 1026.07 1026.50 1026.38 1026.47 1026.66 1027.06 1027.59 1027.69 1027.53 1027.23 1026.89 1026.56 1026.29 1025.98 1025.78 1025.50 1025.36 1025.35 1025.33 1025.42 1025.54 1025.53 1025.31 1025.33 1025.05 1024.70 1024.38 1024.18
1019.92 1019.85 1019.84 1019.83 1020.06 1020.17 1020.69 1020.89 1020.99 1021.34 1020.88 1021.64 1022.89 1023.85 1024.63 1025.24 1026.20 1026.47 1026.55 1026.68 1026.77 1027.08 1027.57 1027.90 1028.25 1027.91 1027.54 1027.74 1027.36 1026.91 1026.66 1026.12 1026.17 1025.88 1025.73 1025.78 1025.81 1025.86 1025.80 1025.72 1025.41 1025.08 1024.81 1024.54
1019.62 1019.59 1019.64 1019.83 1019.95 1020.13 1020.49 1020.54 1020.79 1021.05 1021.23 1022.05 1022.83 1023.82 1024.73 1025.52 1025.93 1026.30 1026.83 1026.88 1027.05 1027.20 1027.71 1028.27 1028.50 1028.55 1028.35 1028.07 1028.02 1027.78 1027.66 1026.89 1026.73 1026.27 1025.95 1025.94 1025.97 1025.96 1025.89 1025.89 1025.75 1025.87 1025.61 1025.18
1019.68 1019.48 1019.57 1019.78 1019.85 1020.03 1020.26 1019.86 1020.29 1020.82 1021.45 1022.29 1022.90 1023.36 1023.85 1024.58 1025.51 1025.92 1026.67 1026.97 1027.24 1027.33 1027.86 1028.48 1029.08 1029.03 1028.71 1028.82 1028.65 1028.56 1028.07 1027.66 1027.18 1026.94 1026.59 1026.49 1026.71 1026.87 1027.06 1026.77 1026.51 1026.38 1026.36 1026.09
1019.45 1019.30 1019.57 1019.63 1019.29 1019.63 1019.68 1019.59 1020.15 1020.73 1021.45 1022.39 1022.90 1023.79 1023.04 1024.19 1024.92 1025.34 1026.04 1026.82 1027.17 1027.62 1027.99 1029.05 1029.31 1029.14 1029.40 1029.27 1029.28 1029.17 1028.46 1028.22 1028.16 1027.95 1027.60 1027.54 1027.56 1027.85 1027.79 1027.47 1027.18 1026.99 1027.01 1026.96
1019.31 1019.07 1018.94 1018.73 1018.88 1019.12 1019.55 1019.94 1020.62 1021.29 1022.42 1022.52 1022.44 1023.37 1022.49 1023.37 1022.81 1024.01 1025.53 1026.77 1026.87 1028.05 1028.73 1029.21 1029.39 1029.47 1029.58 1030.10 1029.70 1029.20 1028.97 1029.25 1029.08 1028.89 1028.79 1028.59 1028.53 1028.56 1028.35 1028.34 1028.05 1027.91 1027.85 1027.82
1019.56 1019.25 1018.81 1018.66 1019.03 1019.22 1019.48 1020.08 1021.52 1022.61 1022.90 1022.10 1021.69 1022.79 1021.53 1021.70 1022.30 1022.98 1024.57 1026.21 1027.07 1028.04 1028.74 1029.14 1029.62 1029.82 1029.85 1030.45 1030.43 1029.47 1029.60 1029.78 1029.96 1029.84 1029.71 1029.63 1029.59 1029.54 1029.48 1029.41 1029.33 1029.03 1028.82 1028.70
1019.29 1019.50 1018.80 1018.42 1018.52 1018.85 1019.34 1019.36 1020.36 1021.50 1022.30 1022.07 1022.13 1021.69 1020.95 1022.12 1022.91 1023.38 1024.71 1026.15 1027.48 1028.32 1028.81 1029.29 1029.96 1030.24 1030.17 1030.61 1030.75 1030.25 1030.22 1030.47 1030.53 1030.50 1030.41 1030.50 1030.39 1030.29 1030.44 1030.46 1030.20 1030.04 1029.90 1029.97
1018.51 1018.69 1018.56 1018.29 1018.36 1018.48 1019.26 1019.39 1019.67 1020.88 1022.02 1022.12 1021.16 1020.91 1021.56 1022.70 1023.58 1024.59 1025.60 1026.59 1027.46 1028.39 1029.15 1029.63 1030.06 1030.25 1030.51 1030.90 1031.09 1030.96 1031.00 1031.01 1031.05 1031.12 1031.16 1031.09 1031.07 1031.10 1031.18 1031.10 1030.82 1030.72 1030.74 1030.45
1017.36 1018.43 1018.59 1018.58 1018.68 1018.73 1018.37 1018.85 1019.95 1020.90 1021.54 1021.96 1020.74 1020.77 1020.90 1022.12 1023.25 1024.75 1025.77 1026.54 1027.58 1028.57 1029.40 1030.13 1030.30 1030.56 1030.94 1031.15 1031.29 1031.32 1031.41 1031.50 1031.72 1031.75 1031.71 1031.77 1031.74 1031.70 1031.66 1031.50 1031.35 1031.33 1031.24 1031.02
1017.22 1017.49 1019.22 1019.05 1018.62 1018.38 1018.81 1018.82 1019.36 1019.87 1020.50 1020.52 1020.51 1019.78 1019.52 1020.84 1022.26 1024.22 1025.70 1026.67 1027.58 1028.74 1029.49 1030.10 1030.40 1030.71 1031.02 1031.33 1031.47 1031.57 1031.93 1032.00 1032.11 1032.23 1032.40 1032.39 1032.42 1032.34 1032.11 1032.01 1032.19 1031.96 1031.77 1031.64
1017.02 1017.72 1019.01 1018.87 1018.51 1018.20 1018.07 1018.06 1018.58 1019.28 1019.95 1019.94 1020.13 1019.46 1019.89 1021.14 1022.13 1023.54 1025.15 1026.63 1027.86 1028.69 1029.49 1029.99 1030.49 1030.87 1031.22 1031.49 1031.80 1031.95 1032.38 1032.39 1032.49 1032.76 1032.90 1032.85 1032.86 1032.83 1032.66 1032.71 1032.82 1032.67 1032.55 1032.32
1016.78 1017.31 1018.90 1019.23 1019.10 1018.54 1018.03 1017.99 1017.89 1018.41 1018.61 1018.69 1019.57 1019.18 1020.31 1021.15 1022.24 1023.67 1024.96 1026.36 1027.49 1028.57 1029.46 1030.14 1030.62 1031.09 1031.28 1031.81 1031.98 1032.40 1032.69 1032.64 1032.85 1033.18 1033.27 1033.23 1033.35 1033.36 1033.38 1033.34 1033.43 1033.43 1033.27 1033.14
1016.42 1017.07 1017.25 1017.13 1017.07 1017.03 1017.71 1017.34 1017.36 1017.51 1017.47 1017.61 1017.08 1018.40 1019.97 1021.41 1022.58 1023.86 1025.02 1026.11 1027.23 1028.30 1029.12 1029.81 1030.58 1031.05 1031.41 1031.94 1032.20 1032.60 1032.83 1033.02 1033.18 1033.36 1033.57 1033.66 1033.78 1033.98 1033.97 1033.88 1034.11 1033.89 1033.88 1033.77
1016.65 1016.72 1017.33 1017.22 1017.17 1016.99 1016.63 1016.39 1016.61 1016.34 1015.65 1016.34 1016.25 1017.64 1018.01 1019.73 1021.15 1022.77 1024.43 1025.83 1026.82 1027.71 1028.60 1029.42 1030.17 1030.81 1031.33 1031.94 1032.38 1032.73 1032.95 1033.28 1033.58 1033.63 1033.83 1034.09 1034.30 1034.34 1034.37 1034.45 1034.49 1034.38 1034.33 1034.32
1016.55 1016.63 1016.97 1017.63 1017.51 1017.38 1017.07 1016.20 1015.60 1014.97 1015.18 1015.30 1015.97 1016.37 1017.35 1018.58 1020.78 1022.72 1023.60 1024.78 1025.71 1026.55 1027.62 1028.55 1029.45 1030.36 1030.99 1031.52 1032.10 1032.55 1033.08 1033.49 1033.70 1033.85 1034.09 1034.43 1034.52 1034.67 1034.84 1034.92 1034.92 1034.91 1034.91 1034.89
1016.11 1016.49 1017.04 1017.27 1017.34 1017.45 1016.92 1014.12 1014.68 1014.54 1014.12 1014.38 1014.94 1014.20 1017.40 1019.14 1019.95 1020.85 1022.17 1023.03 1023.87 1025.19 1026.38 1027.44 1028.47 1029.44 1030.24 1031.02 1031.70 1032.46 1033.01 1033.44 1033.75 1034.08 1034.42 1034.64 1034.83 1034.99 1035.16 1035.26 1035.29 1035.37 1035.32 1035.31
1014.84 1015.76 1016.18 1016.49 1017.10 1016.26 1012.41 1012.98 1013.08 1013.26 1013.15 1013.36 1013.69 1014.46 1015.49 1016.59 1017.53 1019.13 1020.44 1021.44 1022.84 1023.94 1025.24 1026.52 1027.66 1028.85 1029.88 1030.82 1031.66 1032.33 1032.97 1033.43 1033.87 1034.30 1034.62 1034.89 1035.03 1035.16 1035.44 1035.59 1035.71 1035.78 1035.69 1035.55
1013.55 1014.66 1015.07 1014.93 1015.02 1013.53 1012.63 1013.34 1013.36 1013.12 1012.03 1012.15 1012.53 1014.12 1015.45 1016.74 1018.24 1019.09 1019.44 1020.29 1021.29 1022.77 1024.40 1025.70 1026.99 1028.23 1029.45 1030.46 1031.39 1032.13 1032.88 1033.44 1033.94 1034.38 1034.78 1035.03 1035.25 1035.41 1035.66 1035.84 1035.98 1035.95 1035.85 1035.71
1013.67 1013.55 1013.98 1014.13 1014.04 1013.56 1010.32 1012.01 1012.40 1012.65 1011.41 1009.99 1011.44 1013.05 1014.91 1016.52 1017.65 1016.38 1017.67 1019.19 1020.83 1022.24 1023.54 1024.99 1026.58 1027.92 1029.17 1030.30 1031.14 1031.94 1032.77 1033.38 1033.89 1034.40 1034.86 1035.23 1035.44 1035.63 1035.87 1035.99 1036.03 1036.00 1035.81 1035.88
1013.33 1013.16 1012.68 1013.13 1013.15 1012.35 1011.38 1012.12 1012.77 1012.96 1010.01 1009.18 1009.70 1010.75 1013.08 1014.05 1013.31 1013.69 1016.08 1018.57 1020.08 1021.47 1023.09 1024.77 1026.20 1027.33 1028.62 1029.88 1030.84 1031.76 1032.53 1033.18 1033.80 1034.44 1034.98 1035.40 1035.60 1035.76 1035.93 1036.07 1036.10 1036.05 1036.06 1036.14
1011.88 1012.36 1012.33 1012.82 1013.07 1012.61 1011.31 1012.83 1012.31 1010.67 1010.15 1010.21 1010.36 1011.14 1012.43 1013.50 1013.88 1014.72 1016.01 1018.02 1019.57 1020.98 1022.67 1024.22 1025.72 1027.15 1028.49 1029.57 1030.45 1031.50 1032.37 1033.08 1033.77 1034.43 1035.03 1035.46 1035.65 1035.71 1036.00 1036.11 1036.25 1036.28 1036.30 1036.37
1012.29 1010.87 1011.38 1011.13 1009.81 1010.11 1010.42 1010.94 1010.85 1011.00 1011.00 1011.05 1011.22 1011.72 1012.77 1013.97 1014.76 1015.63 1016.81 1018.26 1019.61 1021.00 1022.61 1024.08 1025.34 1026.96 1028.30 1029.23 1030.04 1031.12 1032.06 1032.98 1033.83 1034.53 1035.12 1035.48 1035.72 1035.88 1036.07 1036.19 1036.34 1036.53 1036.49 1036.47
1012.38 1011.47 1011.36 1011.02 1010.16 1010.03 1010.37 1010.68 1010.94 1011.21 1011.06 1011.38 1011.79 1012.34 1013.22 1014.05 1015.29 1016.29 1017.50 1018.76 1020.02 1021.22 1022.48 1023.78 1025.24 1026.65 1027.96 1029.01 1029.86 1030.70 1031.95 1032.94 1033.84 1034.56 1035.05 1035.41 1035.70 1035.96 1036.09 1036.16 1036.27 1036.40 1036.53 1036.58
1013.50 1012.36 1011.01 1010.38 1009.88 1010.08 1010.40 1010.20 1010.41 1011.04 1011.29 1011.81 1012.55 1013.06 1013.63 1014.40 1015.68 1016.40 1017.62 1018.81 1019.90 1021.09 1022.43 1023.53 1024.74 1026.12 1027.45 1028.68 1029.78 1030.75 1031.73 1032.65 1033.66 1034.26 1034.75 1035.18 1035.57 1035.85 1036.06 1036.17 1036.25 1036.24 1036.43 1036.56
1012.56 1011.54 1010.61 1008.44 1008.13 1007.79 1008.33 1008.61 1009.96 1010.56 1011.34 1012.10 1012.79 1013.67 1014.16 1014.57 1015.69 1016.83 1017.88 1018.74 1019.75 1021.04 1022.41 1023.71 1024.89 1026.12 1027.42 1028.62 1029.82 1030.87 1031.62 1032.39 1033.20 1033.94 1034.52 1034.90 1035.28 1035.72 1035.95 1036.15 1036.28 1036.06 1035.85 1035.80
Wind_Speed
2 3 5 8 7 4 6 2 7 8 4 4 5 6 6 4 5 4 6 7 9 9 8 10 11 11 11 13 13 12 11 11 7 3 2 3 3 3 5 5 7 7 7 8
4 5 7 6 7 6 4 5 3 0 4 3 6 4 3 4 3 2 4 5 7 7 8 9 10 10 12 11 11 11 11 11 8 3 2 2 1 2 2 3 7 9 10 11
8 4 7 5 4 4 2 7 7 5 3 3 4 4 6 4 6 6 3 5 6 7 7 6 8 9 9 11 11 10 9 10 9 8 3 3 3 3 5 6 6 10 11 12
4 2 9 5 6 6 4 6 7 5 3 2 2 5 5 7 8 9 8 6 6 8 7 6 5 8 9 9 8 9 9 10 10 10 8 10 7 5 5 6 6 7 12 13
7 8 6 4 7 7 6 5 8 5 9 4 2 1 3 6 8 13 11 9 7 6 8 5 5 7 7 9 8 7 10 12 12 11 10 7 8 5 5 5 8 10 9 12
4 2 6 10 4 8 8 6 6 5 4 8 7 6 5 8 9 10 13 11 11 9 8 6 6 6 8 6 7 9 11 11 11 11 11 11 11 8 7 9 8 8 8 8
2 2 2 3 6 2 3 7 2 2 3 5 3 6 12 4 4 11 18 13 10 10 8 7 5 5 7 7 6 8 10 11 10 11 11 11 11 11 11 9 8 9 9 9
8 4 7 5 7 9 7 7 6 7 4 3 2 7 6 1 2 5 13 13 10 9 7 8 6 6 7 6 6 8 9 9 9 10 11 10 10 8 8 9 8 8 8 8
7 7 2 3 3 7 5 4 4 6 2 2 5 5 3 3 4 8 12 11 10 9 8 8 7 7 7 6 7 7 8 9 10 9 8 10 10 10 9 10 9 7 9 8
6 5 2 3 3 1 7 8 3 2 2 5 5 4 7 9 12 10 12 12 10 9 9 8 7 8 6 6 7 8 9 9 8 9 8 8 9 9 9 9 11 11 10 11
5 4 1 4 7 9 3 4 3 5 5 5 2 6 2 4 14 15 11 10 12 11 9 8 7 7 7 7 7 8 7 8 9 8 8 9 9 9 9 10 10 10 10 11
5 6 4 8 4 3 3 9 7 5 5 4 1 8 1 5 8 16 14 12 10 10 9 8 8 8 7 7 7 7 6 8 8 7 8 9 9 9 10 10 10 10 11 11
7 2 4 6 6 2 5 5 7 3 3 8 7 7 2 4 9 12 15 13 12 11 9 8 7 7 7 7 7 7 6 7 7 7 8 9 9 9 10 10 10 10 10 11
4 4 9 12 3 8 8 7 10 14 9 6 12 6 5 6 10 11 13 14 13 13 12 10 8 8 7 7 7 7 7 6 6 7 8 9 8 8 8 9 9 9 10 10
6 11 4 2 2 0 3 15 15 20 21 15 13 10 5 16 18 18 14 15 16 15 13 12 12 9 8 8 7 7 6 6 5 7 8 8 7 7 8 9 8 9 10 10
3 4 4 2 4 3 3 8 17 24 19 18 3 9 1 5 13 15 18 19 18 18 17 16 14 14 13 11 9 9 7 6 6 7 8 7 7 7 7 7 8 9 9 9
8 6 4 6 6 3 8 21 15 12 18 14 18 20 7 7 15 20 21 22 22 20 19 18 17 15 12 11 11 9 8 7 7 7 7 6 6 7 7 7 8 8 7 7
14 14 5 4 4 10 13 3 7 22 13 21 2 9 16 12 15 12 17 22 20 21 20 18 15 13 12 9 9 9 8 7 8 7 7 6 6 7 6 7 7 6 5 6
18 15 7 10 14 9 9 7 9 11 16 17 24 8 6 9 7 3 17 20 20 19 17 16 15 14 10 12 11 10 8 8 8 7 7 6 5 6 6 6 5 3 4 5
6 17 11 5 11 15 11 8 7 5 18 16 19 15 14 15 9 9 20 20 19 19 17 18 16 14 14 11 11 10 9 8 7 7 7 5 6 6 6 5 4 3 4 6
10 10 17 12 6 10 6 8 5 9 11 5 20 22 24 16 7 5 22 19 17 19 19 17 17 16 14 13 12 10 9 8 7 7 7 6 4 6 5 5 3 4 5 5
15 12 8 4 9 16 7 4 15 6 1 2 5 12 15 5 6 15 21 21 22 22 21 20 17 15 13 13 12 10 9 8 7 7 6 5 4 4 4 5 4 4 4 4
4 8 9 14 12 3 15 3 2 3 3 3 6 7 11 11 6 16 17 20 20 21 18 16 17 15 13 13 11 11 8 9 8 7 6 5 4 4 4 4 4 3 3 2
5 2 4 4 8 6 15 3 3 5 4 3 3 10 13 11 16 15 16 16 16 17 17 16 17 16 14 11 10 7 11 9 8 8 7 5 5 5 3 3 3 3 3 2
3 2 6 6 2 2 7 9 6 6 4 5 6 5 9 15 13 15 15 16 16 16 15 16 16 15 15 12 10 9 10 10 9 7 6 5 4 4 4 3 3 3 3 3
9 7 5 7 8 7 6 13 12 10 8 8 9 8 7 11 16 13 14 14 15 16 14 14 13 14 12 12 10 8 10 11 10 7 6 5 5 4 4 3 3 5 7 7
Wind_Direction
97 116 193 183 184 163 166 150 162 176 226 129 194 165 169 124 88 109 112 103 91 75 57 39 34 32 33 34 35 33 36 21 27 45 49 41 40 18 36 29 24 20 19 12
66 221 218 192 183 147 155 141 135 181 314 164 182 192 146 155 174 158 140 115 114 101 67 53 34 36 39 31 26 30 28 28 19 21 43 67 70 45 43 18 34 30 31 24
162 233 153 156 142 132 200 182 172 169 134 47 115 267 193 182 160 158 149 131 110 109 91 62 48 36 35 35 27 29 20 27 24 12 39 57 55 43 43 31 33 33 31 27
199 158 156 163 178 145 201 202 167 191 80 231 198 272 228 174 177 186 181 168 144 114 97 72 56 46 41 27 27 30 28 30 28 17 41 56 58 58 24 31 37 38 29 26
230 169 145 164 196 169 223 158 188 161 182 36 271 25 250 133 202 205 190 176 144 129 114 109 77 65 45 32 25 30 42 36 29 33 39 51 60 50 41 36 41 35 30 29
186 175 152 196 168 175 156 93 56 63 55 240 200 172 246 191 202 172 173 175 152 147 137 120 93 79 62 33 28 43 51 43 38 41 41 54 56 50 46 34 34 29 27 23
113 205 288 153 98 66 135 119 50 21 232 233 162 196 240 192 187 182 171 164 151 150 146 125 103 82 65 43 32 60 59 53 43 49 47 48 55 54 53 43 39 38 33 28
155 213 175 184 175 174 196 158 156 195 200 241 91 229 250 53 35 142 157 146 143 144 134 127 121 112 91 64 48 64 66 67 54 56 56 54 55 58 55 49 49 45 41 33
142 224 119 168 167 158 211 178 162 109 83 37 223 277 219 159 135 136 143 146 154 152 150 135 127 102 95 87 66 71 77 71 60 59 60 57 55 59 58 53 52 48 43 44
211 154 191 169 133 96 165 163 89 28 160 232 264 265 247 221 199 179 173 166 156 145 143 147 127 116 108 94 85 77 72 73 68 64 63 63 61 60 61 59 56 51 46 46
152 110 191 138 211 159 141 177 99 134 172 196 254 250 196 209 186 185 177 169 159 162 155 145 129 118 111 98 85 82 75 79 74 68 67 67 60 60 61 60 52 51 52 48
205 124 172 199 241 202 182 185 161 187 217 226 191 267 54 240 195 174 169 160 157 155 150 139 133 129 119 109 102 89 85 83 73 74 77 73 70 66 63 59 52 49 53 49
189 255 76 358 337 7 200 194 176 132 114 193 184 249 48 91 134 166 158 159 155 146 141 141 139 144 132 128 113 106 97 89 84 84 84 76 69 66 64 62 57 53 56 54
153 160 194 216 210 141 195 188 198 207 227 193 229 259 194 182 165 164 164 160 159 161 162 159 156 153 143 139 127 122 105 96 95 90 83 79 71 68 67 66 60 58 55 57
174 221 161 212 109 220 227 197 192 210 221 211 239 219 207 196 191 178 166 161 163 170 169 169 165 161 154 145 136 124 111 104 104 98 91 81 80 73 71 69 64 62 60 58
191 252 119 250 153 79 301 241 217 220 222 239 294 241 48 121 133 167 176 174 178 178 177 174 168 165 164 159 151 142 132 125 118 103 96 91 85 81 75 72 69 67 61 60
171 150 122 247 142 124 286 225 214 218 220 211 220 227 150 175 183 184 180 184 183 180 176 174 171 170 166 163 158 150 144 132 121 114 109 98 95 89 76 72 71 66 63 70
192 213 177 162 144 210 250 87 199 208 215 216 259 174 182 187 199 180 187 179 183 177 175 174 168 165 159 147 142 140 142 136 131 125 119 110 101 95 86 80 75 67 70 72
199 194 208 205 209 269 279 200 165 173 243 209 216 181 153 112 76 272 189 191 180 174 170 167 165 159 146 152 150 144 142 140 137 136 129 119 112 108 103 91 82 69 82 72
211 200 202 164 205 212 260 193 179 115 272 190 190 177 154 143 192 216 182 176 171 169 164 160 157 151 151 156 151 147 150 150 149 146 138 132 122 117 112 112 99 74 75 73
183 194 207 201 207 271 173 157 144 162 247 206 195 180 162 188 209 144 161 169 165 158 155 151 154 160 160 154 153 153 154 164 149 141 134 134 131 128 127 121 106 84 78 74
178 182 186 155 198 255 138 60 175 221 303 240 164 168 183 112 110 141 155 157 156 156 157 159 157 159 156 158 158 157 168 147 142 139 137 138 143 141 134 123 102 83 85 78
188 182 174 194 203 185 190 190 151 174 171 219 152 156 144 131 137 146 150 156 159 157 155 158 157 154 160 164 165 162 158 148 145 141 144 152 149 139 135 126 119 113 95 90
269 176 183 121 204 198 199 191 222 199 191 166 152 146 148 138 151 150 151 155 155 158 158 157 154 161 163 167 167 153 150 147 145 152 162 160 153 142 126 128 139 145 148 131
291 148 175 266 230 57 245 224 184 179 151 131 124 149 150 143 155 153 156 158 160 158 159 160 163 165 168 165 157 149 150 147 158 163 165 160 157 160 149 169 178 188 193 191
169 209 201 220 187 151 224 196 177 165 179 167 152 135 142 151 154 159 162 162 158 158 155 161 164 162 162 161 155 152 154 162 161 164 167 174 166 169 170 180 201 242 229 232